User: anonymous   Login
Location: Kumla
(59.1265°N, 15.1401°E)
Time: 10:22:31
(UTC+02:00)
Language:

COSMOS 2251 DEB - Orbit

View from above orbital plane
View from above orbital plane
View from above satellite
View from above satellite

Ground track
Ground track

The orbit data is extracted from the following two-line orbital elements,

1 34726U 93036YU  24146.31504132  .00002722  00000-0  63077-3 0  9998
2 34726  74.0302 343.3312 0046851 272.9260  86.6541 14.54908448802503
Epoch (UTC): 25 May 2024 07:33:39
Eccentricity: 0.0046851
inclination: 74.0302°
perigee height: 676 km
apogee height: 743 km
right ascension of ascending node: 343.3312°
argument of perigee: 272.9260°
revolutions per day: 14.54908448
mean anomaly at epoch: 86.6541°
orbit number at epoch: 80250

The dashed part of the orbit path shows where the satellite is in the earth's shadow,  

DLR